[[{"header":{"parameterUnit":"m.s-1","parameterCategory":1,"la1":30.2991,"la2":30.254,"lo1":-89.0895,"lo2":-89.0444,"dx":0.0017,"dy":0.0017,"nx":28,"ny":28,"refTime":"2022-11-08T09:00:00:Z","depth":0,"parameterNumber":2,"parameterNumberName":"U-component_of_WINDS"},"data":[0,0,0,0,0,0,0,0,0,0,0,0,0,0,0,0,0,0,0,0,0,0,0,0,0,0,0,0,0,0,0,0,0,0,0,0,0,0,0,0,0,0,0,0,0,0,0,0,0,0,0,0,0,0,0,0,0,0,1.3938,1.3937,0,1.3907,1.3907,1.3906,1.3797,1.3795,1.3792,1.379,1.3761,1.3763,1.3764,0,0,0,0,0,0,0,0,0,0,0,0,0,1.3904,1.3905,1.3938,1.3937,1.3937,1.3907,1.3907,1.3906,1.3797,1.3794,1.3791,1.3789,1.3761,1.3762,1.3764,0,0,0,0,0,0,0,0,0,0,0,0,0,1.3901,1.3906,1.3938,1.3879,1.3873,1.3907,1.3907,1.3906,1.3798,1.3794,1.3791,1.3787,1.376,1.3762,1.3765,1.3854,0,0,1.3772,1.3773,0,0,0,0,0,0,0,0,1.3901,1.3902,1.3888,1.3883,1.3877,1.3852,1.3884,1.3889,1.3799,1.3827,1.379,1.3785,1.3795,1.3794,1.3796,1.3852,1.3851,1.3772,1.3773,1.3774,1.3775,0,0,0,0,0,0,0,1.3902,1.3903,1.3925,1.3888,1.3881,1.3855,1.385,1.3885,1.3832,1.3824,1.3816,1.3814,1.3791,1.3794,1.3795,1.3851,1.3772,1.3774,1.3775,1.3776,1.3978,1.3981,0,0,0,0,0,0,1.391,1.3904,1.3926,1.3925,1.388,1.3859,1.3853,1.3864,1.3831,1.3823,1.3817,1.3809,1.3792,1.3792,1.3794,1.3894,1.3774,1.3777,1.3778,1.3974,1.3979,1.3983,0,0,0,0,0,0,1.391,1.3913,1.3928,1.3912,1.3912,1.3863,1.3876,1.3865,1.3868,1.3826,1.3816,1.383,1.3789,1.379,1.3839,1.3892,1.3778,1.378,1.3969,1.3975,1.3981,1.4098,0,0,0,0,0,0,1.3909,1.3913,1.3946,1.3914,1.3913,1.3973,1.3879,1.3867,1.3872,1.3861,1.3836,1.3828,1.3786,1.3836,1.3842,1.3893,1.3782,1.3964,1.3972,1.3979,1.4089,1.4107,1.4123,0,0,0,0,0,1.3908,1.3981,1.3948,1.3952,1.3953,1.3977,1.3976,1.3927,1.3877,1.391,1.3883,1.3829,1.3886,1.3842,1.3847,1.39,1.3961,1.397,1.3978,1.4082,1.4104,1.4123,0,0,0,0,0,0,1.4022,1.3976,1.3939,1.4003,1.3995,1.3958,1.3998,1.3952,1.3958,1.3947,1.3886,1.3881,1.3939,1.3925,1.3877,1.3985,1.3914,1.3925,1.3991,1.4012,1.4028,1.403,1.3783,0,0,0,0,0,1.4054,1.4077,1.4036,1.4096,1.4094,1.4047,1.4056,1.4018,1.4007,1.4003,1.3979,1.3971,1.3987,1.3999,1.4012,1.4088,1.408,1.4127,1.4144,1.4158,1.4167,1.4205,1.4225,1.4012,1.4012,1.4012,0,0,1.4122,1.4099,1.4117,1.4119,1.4107,1.4132,1.4045,1.4075,1.4093,1.4008,1.4051,1.4035,1.4022,1.4085,1.4111,1.4075,1.4224,1.4169,1.418,1.4182,1.4216,1.4236,1.4254,1.4018,1.4017,1.4016,0,0,1.4257,1.4243,1.4291,1.4281,1.4265,1.4234,1.4246,1.4217,1.4201,1.4245,1.4181,1.4203,1.4232,1.4225,1.4225,1.4359,1.4309,1.4365,1.4452,1.449,1.4507,1.4522,1.4568,1.4586,1.4375,1.4375,1.4375,0,1.4342,1.4376,1.4322,1.4356,1.4358,1.4282,1.4331,1.4325,1.4315,1.4319,1.4278,1.4313,1.4299,1.4358,1.4391,1.4395,1.4406,1.4367,1.4509,1.4523,1.4536,1.4579,1.4597,1.4382,1.4381,1.4381,1.438,0,1.4482,1.4507,1.4548,1.4539,1.4546,1.4588,1.4541,1.4555,1.4518,1.4491,1.4536,1.4517,1.4524,1.4536,1.45,1.4591,1.4568,1.452,1.4447,1.4564,1.4604,1.462,1.4392,1.4389,1.4387,1.4386,0,0,1.4686,1.4646,1.4662,1.4656,1.4634,1.4652,1.4692,1.4697,1.471,1.4707,1.4737,1.4764,1.4719,1.472,1.4683,1.4717,1.4822,1.4663,1.4662,1.4692,1.492,1.4956,1.4976,1.479,1.4793,1.4796,1.4921,0,1.4812,1.4874,1.4827,1.4898,1.492,1.4849,1.4882,1.4873,1.4849,1.4866,1.484,1.4859,1.4799,1.4799,1.4829,1.4803,1.4867,1.4794,1.4818,1.4819,1.4821,1.4997,1.5034,1.5153,1.4936,1.4939,1.4941,0,1.4968,1.497,1.5043,1.5015,1.5023,1.5054,1.5055,1.5072,1.506,1.504,1.5042,1.4996,1.5033,1.4963,1.5013,1.4964,1.4972,1.4961,1.4964,1.4963,1.4886,1.4999,1.519,1.5207,1.4965,1.4963,1.4961,0,1.5107,1.5128,1.5174,1.5172,1.5142,1.5165,1.5154,1.5138,1.5145,1.5147,1.515,1.5158,1.5162,1.5169,1.5126,1.508,1.5181,1.5109,1.5166,1.5167,1.5188,1.5187,1.5382,1.5197,1.5197,1.5197,1.5196,0,1.5252,1.5299,1.5236,1.5264,1.5315,1.5261,1.5313,1.5294,1.5281,1.5305,1.5245,1.5269,1.5213,1.5231,1.5199,1.5244,1.5247,1.5232,1.5222,1.5236,1.5238,1.5238,1.5228,1.5201,1.52,1.5199,1.5199,0,1.5414,1.5374,1.5419,1.5387,1.538,1.5419,1.5391,1.5417,1.539,1.5421,1.5425,1.5383,1.5402,1.5361,1.5374,1.5352,1.5416,1.5395,1.542,1.5413,1.5471,1.5466,1.5671,1.5695,1.5498,1.55,1.5502,0,1.5508,1.5542,1.5514,1.5525,1.5517,1.5536,1.5542,1.5491,1.5501,1.549,1.5517,1.553,1.5538,1.5571,1.5542,1.5552,1.5529,1.5601,1.553,1.5543,1.5528,1.5526,1.5528,1.5615,1.5617,1.5619,1.5621,0,1.5679,1.5657,1.5668,1.5673,1.5682,1.5683,1.568,1.5693,1.5639,1.5653,1.567,1.5677,1.569,1.5704,1.5707,1.5696,1.565,1.5644,1.5657,1.567,1.5682,1.5674,1.5457,1.5638,1.5636,1.5635,1.5634,1.5634,1.5808,1.5835,1.5819,1.5833,1.5826,1.5825,1.5846,1.5822,1.5836,1.5841,1.5812,1.5836,1.5824,1.5824,1.5818,1.5837,1.5805,1.5825,1.5829,1.5834,1.5843,1.5681,1.5838,1.5837,1.5837,1.5836,1.5836,0,1.5973,1.596,1.5974,1.5971,1.5983,1.5938,1.5933,1.5946,1.5967,1.596,1.5969,1.599,1.6003,1.5976,1.5986,1.6006,1.5985,1.601,1.6007,1.6005,1.5872,1.5859,1.6027,1.6027,1.6027,1.6027,1.6027,1.6027,1.606,1.6103,1.608,1.6119,1.6105,1.6128,1.6129,1.6128,1.6121,1.6147,1.6157,1.614,1.6124,1.6132,1.6143,1.6135,1.6141,1.6173,1.6157,1.6033,1.6014,1.5997,1.5983,1.6175,1.6175,1.6288,1.6289,1.629]},{"header":{"parameterUnit":"m.s-1","parameterCategory":1,"la1":30.2991,"la2":30.254,"lo1":-89.0895,"lo2":-89.0444,"dx":0.0017,"dy":0.0017,"nx":28,"ny":28,"refTime":"2022-11-08T09:00:00:Z","depth":0,"parameterNumber":3,"parameterNumberName":"V-component_of_WINDS"},"data":[0,0,0,0,0,0,0,0,0,0,0,0,0,0,0,0,0,0,0,0,0,0,0,0,0,0,0,0,0,0,0,0,0,0,0,0,0,0,0,0,0,0,0,0,0,0,0,0,0,0,0,0,0,0,0,0,0,0,-0.7777,-0.7778,0,-0.7829,-0.7829,-0.783,-0.7898,-0.7899,-0.79,-0.7901,-0.7952,-0.7953,-0.7953,0,0,0,0,0,0,0,0,0,0,0,0,0,-0.7737,-0.7737,-0.7777,-0.7778,-0.7778,-0.7829,-0.7829,-0.783,-0.7898,-0.7899,-0.79,-0.7902,-0.7952,-0.7953,-0.7953,0,0,0,0,0,0,0,0,0,0,0,0,0,-0.7768,-0.7737,-0.7777,-0.7818,-0.7823,-0.7829,-0.7829,-0.783,-0.7897,-0.7899,-0.7901,-0.7902,-0.7952,-0.7953,-0.7953,-0.7922,0,0,-0.7955,-0.7955,0,0,0,0,0,0,0,0,-0.7766,-0.7769,-0.7812,-0.7815,-0.782,-0.7859,-0.7834,-0.7861,-0.7897,-0.7869,-0.7901,-0.7903,-0.792,-0.7923,-0.7929,-0.7925,-0.7927,-0.7955,-0.7955,-0.7955,-0.7955,0,0,0,0,0,0,0,-0.7764,-0.7767,-0.7798,-0.7812,-0.7817,-0.7834,-0.784,-0.7839,-0.7884,-0.7872,-0.7877,-0.7882,-0.7922,-0.7928,-0.7931,-0.7928,-0.7955,-0.7955,-0.7955,-0.7956,-0.7903,-0.7901,0,0,0,0,0,0,-0.7755,-0.7765,-0.7796,-0.7799,-0.7797,-0.7833,-0.784,-0.7845,-0.7884,-0.7892,-0.788,-0.7885,-0.7927,-0.793,-0.7933,-0.7901,-0.7955,-0.7956,-0.7956,-0.7904,-0.7902,-0.7901,0,0,0,0,0,0,-0.7754,-0.7758,-0.7794,-0.7784,-0.7789,-0.7832,-0.7836,-0.7845,-0.7851,-0.7891,-0.7899,-0.7878,-0.7928,-0.7932,-0.7925,-0.7904,-0.7956,-0.7956,-0.7906,-0.7904,-0.7901,-0.7836,0,0,0,0,0,0,-0.7753,-0.7757,-0.7746,-0.7783,-0.779,-0.7785,-0.7835,-0.7845,-0.7852,-0.7858,-0.7891,-0.7898,-0.793,-0.7924,-0.7925,-0.7905,-0.7957,-0.7909,-0.7905,-0.7902,-0.784,-0.7831,-0.7824,0,0,0,0,0,-0.7751,-0.7724,-0.7745,-0.7748,-0.7777,-0.7784,-0.7788,-0.7825,-0.7849,-0.7839,-0.7865,-0.7897,-0.7905,-0.7923,-0.7925,-0.7904,-0.791,-0.7906,-0.7902,-0.7844,-0.7833,-0.7824,0,0,0,0,0,0,-0.7683,-0.773,-0.7753,-0.7737,-0.7756,-0.7795,-0.7783,-0.7812,-0.7824,-0.7829,-0.7874,-0.7881,-0.7869,-0.7886,-0.7904,-0.7878,-0.7913,-0.7909,-0.7867,-0.7857,-0.7849,-0.7846,-0.7957,0,0,0,0,0,-0.7666,-0.7668,-0.7709,-0.7691,-0.77,-0.7739,-0.7744,-0.7771,-0.7792,-0.78,-0.7826,-0.7844,-0.7852,-0.7855,-0.7864,-0.7842,-0.7851,-0.783,-0.7821,-0.7814,-0.7811,-0.7803,-0.7794,-0.7888,-0.7888,-0.7888,0,0,-0.7631,-0.7657,-0.7655,-0.7678,-0.7696,-0.7697,-0.7745,-0.7744,-0.7746,-0.78,-0.7795,-0.7814,-0.7839,-0.7825,-0.782,-0.7839,-0.7787,-0.781,-0.7804,-0.7805,-0.7798,-0.7789,-0.7781,-0.7885,-0.7886,-0.7886,0,0,-0.7568,-0.7588,-0.7576,-0.7593,-0.762,-0.7646,-0.7643,-0.7678,-0.7694,-0.769,-0.7731,-0.7733,-0.7744,-0.776,-0.7769,-0.7714,-0.7745,-0.7715,-0.7673,-0.7664,-0.7657,-0.7651,-0.7632,-0.7625,-0.7711,-0.7711,-0.7711,0,-0.7521,-0.7526,-0.7566,-0.7563,-0.7572,-0.7622,-0.761,-0.7625,-0.7652,-0.7657,-0.7678,-0.7694,-0.7713,-0.7704,-0.7691,-0.7697,-0.7695,-0.7712,-0.7655,-0.7649,-0.7644,-0.7627,-0.7619,-0.7708,-0.7708,-0.7708,-0.7709,0,-0.7467,-0.747,-0.7457,-0.7484,-0.7491,-0.7484,-0.7523,-0.7526,-0.7552,-0.7577,-0.7573,-0.7598,-0.7614,-0.7613,-0.7638,-0.7609,-0.762,-0.7646,-0.7683,-0.763,-0.7615,-0.7609,-0.7702,-0.7704,-0.7705,-0.7706,0,0,-0.7364,-0.7413,-0.7408,-0.7421,-0.7455,-0.7457,-0.7452,-0.7468,-0.747,-0.7487,-0.7485,-0.7493,-0.7519,-0.753,-0.7557,-0.755,-0.7506,-0.7578,-0.7579,-0.7565,-0.7476,-0.7457,-0.7449,-0.7526,-0.7525,-0.7524,-0.7475,0,-0.7309,-0.7304,-0.734,-0.7326,-0.7329,-0.7376,-0.7372,-0.7392,-0.7415,-0.7421,-0.7446,-0.7452,-0.7484,-0.7492,-0.7486,-0.7512,-0.7489,-0.7516,-0.7525,-0.7525,-0.7519,-0.7441,-0.742,-0.7372,-0.7469,-0.7468,-0.7467,0,-0.7244,-0.7259,-0.7245,-0.728,-0.7283,-0.7278,-0.7297,-0.7301,-0.7325,-0.7342,-0.7355,-0.7387,-0.7385,-0.7419,-0.7417,-0.7435,-0.7441,-0.7454,-0.7453,-0.7457,-0.7494,-0.7443,-0.7357,-0.7351,-0.7458,-0.7459,-0.746,0,-0.7171,-0.7188,-0.7182,-0.7192,-0.7232,-0.7228,-0.7245,-0.7271,-0.7278,-0.7294,-0.7299,-0.7314,-0.7322,-0.7333,-0.7368,-0.7389,-0.7363,-0.7399,-0.7378,-0.7377,-0.7371,-0.7371,-0.7287,-0.7372,-0.7372,-0.7372,-0.7373,0,-0.7107,-0.7097,-0.7151,-0.7147,-0.7137,-0.7179,-0.7168,-0.719,-0.7212,-0.7214,-0.7255,-0.7255,-0.7301,-0.7307,-0.7334,-0.733,-0.7333,-0.7347,-0.7355,-0.7345,-0.7343,-0.735,-0.7355,-0.7371,-0.7371,-0.7371,-0.7372,0,-0.7025,-0.706,-0.7058,-0.7096,-0.7106,-0.7097,-0.7131,-0.7129,-0.7155,-0.7156,-0.7159,-0.7199,-0.7208,-0.7244,-0.7262,-0.728,-0.7268,-0.7281,-0.726,-0.7265,-0.7243,-0.7245,-0.7161,-0.7152,-0.7241,-0.724,-0.7239,0,-0.6983,-0.6976,-0.7015,-0.7019,-0.7034,-0.704,-0.7049,-0.7089,-0.7096,-0.7123,-0.7119,-0.7131,-0.7144,-0.7156,-0.7187,-0.7201,-0.7217,-0.7186,-0.7219,-0.7209,-0.7218,-0.7219,-0.7219,-0.7179,-0.7178,-0.7177,-0.7177,0,-0.6904,-0.6922,-0.6932,-0.6949,-0.6958,-0.6973,-0.699,-0.6991,-0.7037,-0.7042,-0.7053,-0.7062,-0.7081,-0.7093,-0.7113,-0.713,-0.7161,-0.7166,-0.7162,-0.7152,-0.7141,-0.7148,-0.7242,-0.7168,-0.7169,-0.7169,-0.717,-0.717,-0.6842,-0.6839,-0.6866,-0.6876,-0.6894,-0.6909,-0.691,-0.6936,-0.6946,-0.6965,-0.6988,-0.6995,-0.702,-0.705,-0.7065,-0.7072,-0.7089,-0.7083,-0.7081,-0.708,-0.7075,-0.7138,-0.7075,-0.7075,-0.7075,-0.7076,-0.7076,0,-0.6766,-0.6786,-0.6795,-0.6819,-0.6827,-0.6856,-0.6877,-0.6882,-0.6889,-0.6909,-0.6921,-0.6933,-0.6946,-0.6978,-0.6993,-0.6993,-0.7008,-0.6996,-0.6997,-0.7001,-0.7058,-0.7061,-0.6984,-0.6984,-0.6984,-0.6984,-0.6984,-0.6984,-0.6728,-0.6726,-0.6747,-0.6753,-0.6773,-0.6781,-0.6791,-0.6806,-0.6823,-0.6835,-0.6846,-0.6867,-0.6892,-0.691,-0.6923,-0.6932,-0.6937,-0.692,-0.6934,-0.6988,-0.6996,-0.7005,-0.7008,-0.6921,-0.6921,-0.6877,-0.6876,-0.6876]}]]